Location: Caltech
(34.1382°N, 118.1253°W)
Time: 17:40:38
(UTC-07:00)

SO-50 - Visible Passes

Search period start: 19 April 2014 00:00
Search period end: 29 April 2014 00:00
Orbit: 621 x 678 km, 64.6° (Epoch: 19 April)

Date Brightness Start Highest point End Pass type
(mag) Time Alt. Az. Time Alt. Az. Time Alt. Az.
21 Apr ? 23:14:31 10° N 23:14:42 11° N 23:14:42 11° N visible
22 Apr ? 23:40:40 10° NNW 23:40:54 11° NNW 23:40:54 11° NNW visible
23 Apr ? 22:28:34 10° NNE 22:29:23 12° NNE 22:29:23 12° NNE visible
24 Apr ? 22:54:18 10° N 22:55:39 18° N 22:55:39 18° N visible
25 Apr ? 21:43:07 10° NNE 21:44:10 11° NE 21:44:10 11° NE visible
25 Apr ? 23:20:57 10° NNW 23:21:56 16° NNW 23:21:56 16° NNW visible
26 Apr ? 22:08:00 10° N 22:10:29 22° NNE 22:10:29 22° NNE visible
27 Apr ? 22:34:23 10° NNW 22:36:50 31° NNW 22:36:50 31° NNW visible
28 Apr ? 21:21:48 10° N 21:25:11 20° NE 21:25:27 19° NE visible
28 Apr ? 23:01:29 10° NW 23:03:13 21° NW 23:03:13 21° NW visible
